Torna al catalogo

KUIPER-00225

AttivoComunicazioniLEO
NORAD 67784·PAYLOAD·🇺🇸 United States

Lanciato Feb 12, 2026 da Guiana Space Centre

Loading…

Prossimi Passaggi (prossime 24 ore)

TLE

AggiornatoSource: CelesTrak SupGP

Epoca: Sep 14, 2026, 19:10 UTC

1 67784C 26030W   26257.79886574  .00003405  00000+0  44583-3 0  2574
2 67784  51.8974  81.9624 0000687 104.8995 327.2631 14.79920695    12

Traccia KUIPER-00225 in tempo reale con AllMySat

Download on the App Store